Погода в Поливянке

Россия / Ростовская область     46°15′24″N   41°24′18″E
темп.,
°C
ветер,
м/с
пор.,
м/с
влажн.,
%
обл.,
%
осадки,
мм/ч
давл.,
гПа
погр.,
м
26 января, вт
вт2600:000вюв5108447 0.0 1016181
03:000вюв598473 0.0 1015165
06:000юв4485100 0.0 101782
09:00+2ююв2390100 0.4 101839
12:00+4ююв23100100 0.0 101945
15:00+4юв3499100 0.0 101880
18:00+3юв4586100 0.0 101982
21:00+2юв4784100 0.0 1018132
27 января, ср
ср2700:00+2вюв4585100 0.0 101889
03:00+2вюв51087100 0.0 1016160
06:00+2вюв51185100 0.0 1015239
09:00+2вюв61188100 0.0 1015273
12:00+4вюв61382100 0.0 1014378
15:00+5вюв61383100 0.0 1011436
18:00+3вюв71489100 0.0 1010446
21:00+2вюв61390100 0.0 1009433
28 января, чт
чт2800:00+3вюв51294100 0.0 1008338
03:00+2вюв5119396 0.0 1007263
06:00+2в6119588 0.0 1007268
09:00+2юв279694 0.0 1007223
12:00+5всв3590100 0.0 1007258
15:00+6вюв118699 0.0 1007305
18:00+4св119298 0.0 100822
21:00+4сз229599 0.6 100838
29 января, пт
пт2900:00+5з61194100 1.5 1009481
03:00+3зюз41082100 1.5 1010423
06:00+2зюз31085100 0.0 1011272
09:00+3зюз5138167 0.0 1011640
12:00+7зюз813550 0.0 10101612
15:00+6зюз7126737 0.1 10091387
18:00+4юз71385100 0.1 1010761
21:00+4ю61186100 0.1 1011441
30 января, сб
сб3000:00+4ю61190100 0.1 1010604
03:00+3ю51086100 0.1 1009277
06:00+2ю4108599 0.0 1008243
09:00+3ю5147196 0.0 1008525
12:00+8юз7145494 0.0 10081440
15:00+8ю584897 0.0 1007535
18:00+6вюв5963100 0.0 1006170
21:00+5юв41184100 0.0 1006329